This is the latest recevied weather packets stored in our database for station/object KB1ZFK. If no packets are shown the sender has not sent any weather packets the latest 10 day(s).
| Time | Temp. | Humidity | Pressure | Rain* | Wind** | Luminosity | Snow |
|---|---|---|---|---|---|---|---|
| 1777547133 | 6.11° C | 98% | 1008.1 hPa | 0 mm | - | 19 W/m² | - |
| 1777546830 | 6.11° C | 98% | 1008.2 hPa | 1.27 mm | - | 29 W/m² | - |
| 1777546526 | 6.11° C | 98% | 1008.1 hPa | 1.27 mm | - | 27 W/m² | - |
| 1777546223 | 6.11° C | 98% | 1007.7 hPa | 0 mm | - | 25 W/m² | - |
| 1777545921 | 5.56° C | 98% | 1008.2 hPa | 0 mm | - | 24 W/m² | - |
| 1777545617 | 6.11° C | 98% | 1008.2 hPa | 0 mm | - | 16 W/m² | - |
| 1777545314 | 5.56° C | 98% | 1008.3 hPa | 0 mm | - | 9 W/m² | - |
| 1777545011 | 6.11° C | 98% | 1008.1 hPa | 0 mm | - | 7 W/m² | - |
| 1777544708 | 6.11° C | 98% | 1008.4 hPa | 0 mm | - | 5 W/m² | - |
| 1777544403 | 6.11° C | 98% | 1008.4 hPa | 0 mm | - | 3 W/m² | - |
| 1777544100 | 6.11° C | 98% | 1008.3 hPa | 0 mm | - | 3 W/m² | - |
| 1777543797 | 6.11° C | 98% | 1008.2 hPa | 0 mm | - | 2 W/m² | - |
| 1777543493 | 5.56° C | 98% | 1008.2 hPa | 1.78 mm | - | 2 W/m² | - |
| 1777543190 | 5.56° C | 98% | 1008.1 hPa | 1.78 mm | - | 1 W/m² | - |
| 1777542885 | 5.56° C | 98% | 1008.3 hPa | 1.27 mm | - | 0 W/m² | - |
| 1777542582 | 5.56° C | 98% | 1008.2 hPa | 3.05 mm | - | 0 W/m² | - |
| 1777542278 | 5.56° C | 98% | 1008.1 hPa | 1.78 mm | - | 0 W/m² | - |
| 1777541976 | 5.56° C | 98% | 1008.1 hPa | 1.27 mm | - | 0 W/m² | - |
| 1777541673 | 5.56° C | 98% | 1007.8 hPa | 1.27 mm | - | 0 W/m² | - |
| 1777541369 | 5.56° C | 98% | 1007.8 hPa | 3.05 mm | - | 0 W/m² | - |
| 1777541065 | 5.56° C | 98% | 1008 hPa | 1.78 mm | - | 0 W/m² | - |
| 1777540763 | 6.11° C | 98% | 1008.1 hPa | 1.78 mm | - | 0 W/m² | - |
| 1777540461 | 6.11° C | 98% | 1008.1 hPa | 1.78 mm | - | 0 W/m² | - |
| 1777540156 | 5.56° C | 98% | 1008.5 hPa | 1.78 mm | - | 0 W/m² | - |
| 1777539851 | 5.56° C | 98% | 1008.6 hPa | 1.27 mm | - | 0 W/m² | - |
* Rain latest hour (hover to see other rain measurements)
** Current wind speed in m/s (hover to see current wind gust speed)